Previsão horária em Abasolo

Hoje, 23 Janeiro, Sábado

Tempo Temperatura Precipitação Vento Pressão Humidade
00:00 +22°C° 0 mm 1 m/s 754 mmHg 95%
01:00 +20°C° 0 mm 0 m/s 754 mmHg 95%
02:00 +19°C° 0 mm 0 m/s 754 mmHg 95%
03:00 +21°C° 0 mm 1 m/s 754 mmHg 95%
04:00 +21°C° 0 mm 1 m/s 754 mmHg 95%
05:00 +21°C° 0 mm 1 m/s 754 mmHg 95%
06:00 +22°C° 0 mm 1 m/s 754 mmHg 90%
07:00 +23°C° 0 mm 2 m/s 755 mmHg 85%
08:00 +24°C° 0 mm 2 m/s 755 mmHg 80%
09:00 +26°C° 0 mm 3 m/s 755 mmHg 72%
10:00 +28°C° 0 mm 3 m/s 754 mmHg 64%
11:00 +30°C° 0 mm 4 m/s 754 mmHg 56%
12:00 +32°C° 0 mm 5 m/s 753 mmHg 55%
13:00 +32°C° 0 mm 5 m/s 752 mmHg 55%
14:00 +32°C° 0 mm 6 m/s 751 mmHg 55%
15:00 +30°C° 0 mm 6 m/s 751 mmHg 61%
16:00 +28°C° 0 mm 6 m/s 752 mmHg 66%
17:00 +27°C° 0 mm 5 m/s 752 mmHg 72%
18:00 +25°C° 0 mm 5 m/s 752 mmHg 78%
19:00 +23°C° 0 mm 4 m/s 753 mmHg 85%
20:00 +22°C° 0 mm 3 m/s 753 mmHg 91%
21:00 +22°C° 0 mm 3 m/s 753 mmHg 92%
22:00 +22°C° 0 mm 3 m/s 753 mmHg 93%
23:00 +21°C° 0 mm 3 m/s 753 mmHg 94%

Amanhã, 24 Janeiro, Domingo

Tempo Temperatura Precipitação Vento Pressão Humidade
00:00 +21°C° 0 mm 2 m/s 753 mmHg 94%
01:00 +21°C° 0 mm 2 m/s 753 mmHg 95%
02:00 +21°C° 0 mm 2 m/s 752 mmHg 96%
03:00 +20°C° 0 mm 2 m/s 752 mmHg 95%
04:00 +20°C° 0 mm 2 m/s 752 mmHg 95%
05:00 +20°C° 0 mm 2 m/s 752 mmHg 95%
06:00 +21°C° 0 mm 2 m/s 752 mmHg 89%
07:00 +24°C° 0 mm 3 m/s 753 mmHg 82%
08:00 +25°C° 0 mm 4 m/s 753 mmHg 76%
09:00 +27°C° 0 mm 5 m/s 753 mmHg 69%
10:00 +29°C° 0 mm 6 m/s 752 mmHg 62%
11:00 +30°C° 0 mm 6 m/s 752 mmHg 56%
12:00 +32°C° 0 mm 7 m/s 751 mmHg 56%
13:00 +32°C° 0 mm 7 m/s 750 mmHg 55%
14:00 +32°C° 0 mm 8 m/s 749 mmHg 55%
15:00 +30°C° 0 mm 7 m/s 749 mmHg 61%
16:00 +28°C° 0 mm 7 m/s 749 mmHg 66%
17:00 +27°C° 0 mm 7 m/s 749 mmHg 72%
18:00 +26°C° 0 mm 7 m/s 749 mmHg 77%
19:00 +24°C° 0 mm 6 m/s 749 mmHg 83%
20:00 +23°C° 0 mm 6 m/s 750 mmHg 88%
21:00 +23°C° 0 mm 5 m/s 750 mmHg 88%
22:00 +22°C° 0 mm 5 m/s 749 mmHg 88%
23:00 +22°C° 0 mm 4 m/s 749 mmHg 88%

Depois de amanhã, 25 Janeiro, Segunda-feira

Tempo Temperatura Precipitação Vento Pressão Humidade
00:00 +22°C° 0 mm 3 m/s 749 mmHg 90%
01:00 +21°C° 0 mm 3 m/s 749 mmHg 91%
02:00 +21°C° 0 mm 2 m/s 749 mmHg 93%
03:00 +20°C° 0 mm 2 m/s 749 mmHg 93%
04:00 +21°C° 0 mm 1 m/s 749 mmHg 94%
05:00 +21°C° 0 mm 1 m/s 749 mmHg 94%
06:00 +22°C° 0 mm 1 m/s 749 mmHg 89%
07:00 +23°C° 0 mm 1 m/s 750 mmHg 84%
08:00 +24°C° 0 mm 2 m/s 750 mmHg 80%
09:00 +27°C° 0 mm 1 m/s 750 mmHg 67%
10:00 +30°C° 0 mm 1 m/s 750 mmHg 55%
11:00 +33°C° 0 mm 1 m/s 750 mmHg 42%
12:00 +34°C° 0 mm 2 m/s 749 mmHg 41%
13:00 +35°C° 0 mm 4 m/s 749 mmHg 39%
14:00 +35°C° 0 mm 5 m/s 748 mmHg 37%
15:00 +33°C° 0 mm 5 m/s 748 mmHg 46%
16:00 +30°C° 0 mm 4 m/s 749 mmHg 55%
17:00 +28°C° 0 mm 3 m/s 749 mmHg 64%
18:00 +27°C° 0 mm 3 m/s 749 mmHg 72%
19:00 +25°C° 0 mm 2 m/s 750 mmHg 80%
20:00 +24°C° 0 mm 1 m/s 751 mmHg 89%
21:00 +24°C° 0 mm 1 m/s 751 mmHg 86%
22:00 +24°C° 0 mm 2 m/s 751 mmHg 83%
23:00 +24°C° 0 mm 2 m/s 751 mmHg 80%

26 Janeiro, Terça-feira

Tempo Temperatura Precipitação Vento Pressão Humidade
00:00 +24°C° 0 mm 2 m/s 751 mmHg 79%
01:00 +23°C° 0 mm 2 m/s 751 mmHg 77%
02:00 +23°C° 0 mm 2 m/s 751 mmHg 76%
03:00 +22°C° 0 mm 1 m/s 751 mmHg 78%
04:00 +21°C° 0 mm 1 m/s 750 mmHg 80%
05:00 +21°C° 0 mm 1 m/s 750 mmHg 82%
06:00 +22°C° 0 mm 1 m/s 751 mmHg 78%
07:00 +21°C° 0 mm 0 m/s 751 mmHg 73%
08:00 +22°C° 0 mm 0 m/s 752 mmHg 69%
09:00 +26°C° 0 mm 1 m/s 751 mmHg 65%
10:00 +28°C° 0 mm 2 m/s 751 mmHg 61%
11:00 +29°C° 0 mm 2 m/s 751 mmHg 57%
12:00 +30°C° 0 mm 2 m/s 750 mmHg 54%
13:00 +31°C° 0 mm 3 m/s 749 mmHg 51%
14:00 +33°C° 0 mm 3 m/s 748 mmHg 48%
15:00 +32°C° 0 mm 4 m/s 748 mmHg 56%
16:00 +29°C° 0 mm 5 m/s 748 mmHg 64%
17:00 +27°C° 0 mm 5 m/s 748 mmHg 72%
18:00 +26°C° 0 mm 4 m/s 749 mmHg 78%
19:00 +24°C° 0 mm 3 m/s 750 mmHg 85%
20:00 +23°C° 0 mm 1 m/s 750 mmHg 92%
21:00 +23°C° 0 mm 1 m/s 750 mmHg 93%
22:00 +23°C° 0 mm 1 m/s 751 mmHg 93%
23:00 +22°C° 0 mm 1 m/s 751 mmHg 94%

27 Janeiro, Quarta-feira

Tempo Temperatura Precipitação Vento Pressão Humidade
00:00 +22°C° 0 mm 1 m/s 751 mmHg 94%
01:00 +22°C° 0 mm 1 m/s 751 mmHg 94%
02:00 +20°C° 0 mm 0 m/s 751 mmHg 94%
03:00 +22°C° 0 mm 1 m/s 752 mmHg 93%
04:00 +21°C° 0 mm 2 m/s 753 mmHg 93%
05:00 +21°C° 0 mm 3 m/s 753 mmHg 92%
06:00 +21°C° 0 mm 5 m/s 755 mmHg 78%
07:00 +21°C° 0 mm 6 m/s 756 mmHg 65%
08:00 +21°C° 0 mm 8 m/s 757 mmHg 51%
09:00 +22°C° 0 mm 8 m/s 758 mmHg 45%
10:00 +22°C° 0 mm 7 m/s 758 mmHg 39%
11:00 +23°C° 0 mm 7 m/s 759 mmHg 33%
12:00 +24°C° 0 mm 7 m/s 759 mmHg 30%
13:00 +24°C° 0 mm 7 m/s 758 mmHg 28%
14:00 +26°C° 0 mm 7 m/s 758 mmHg 25%
15:00 +24°C° 0 mm 6 m/s 759 mmHg 27%
16:00 +23°C° 0 mm 5 m/s 759 mmHg 29%
17:00 +22°C° 0 mm 3 m/s 760 mmHg 30%
18:00 +21°C° 0 mm 3 m/s 760 mmHg 32%
19:00 +20°C° 0 mm 3 m/s 761 mmHg 33%
20:00 +19°C° 0 mm 3 m/s 762 mmHg 35%
21:00 +18°C° 0 mm 2 m/s 762 mmHg 35%
22:00 +17°C° 0 mm 2 m/s 762 mmHg 35%
23:00 +17°C° 0 mm 2 m/s 762 mmHg 35%

28 Janeiro, Quinta-feira

Tempo Temperatura Precipitação Vento Pressão Humidade
00:00 +16°C° 0 mm 2 m/s 762 mmHg 36%
01:00 +16°C° 0 mm 2 m/s 762 mmHg 36%
02:00 +15°C° 0 mm 2 m/s 762 mmHg 37%
03:00 +15°C° 0 mm 1 m/s 762 mmHg 37%
04:00 +15°C° 0 mm 1 m/s 762 mmHg 38%
05:00 +14°C° 0 mm 1 m/s 762 mmHg 39%
06:00 +16°C° 0 mm 2 m/s 763 mmHg 37%
07:00 +17°C° 0 mm 2 m/s 763 mmHg 34%
08:00 +18°C° 0 mm 2 m/s 764 mmHg 32%
09:00 +20°C° 0 mm 3 m/s 764 mmHg 30%
10:00 +21°C° 0 mm 3 m/s 764 mmHg 28%
11:00 +24°C° 0 mm 3 m/s 763 mmHg 26%
Mostrar mais